Flag for Belize Weather past 2 weeks in Orange Walk Town, Belize

Now
84 °F

Passing clouds.


Feels Like: 92 °F
Forecast: 78 / 92 °F
Wind: 9 mph from East

Location: Chetumal - Q. Roo

Current Time: Oct 2, 2014 at 6:51:25 AM

Latest Report: Oct 2, 2014 at 5:42 AM


Visibility: 7 mi

Pressure: 29.91 "Hg

Humidity: 74%

Dew point: 75 °F

Location of Orange Walk TownLocation

Historic Weather in Orange Walk Town — Graph

°F

Orange Walk Town temperature yesterday

Maximum temperature yesterday: 88 °F (at 10:40 AM)
Minimum temperature yesterday: 82 °F (at 5:10 AM)
Average temperature yesterday: 85 °F

Past Weeks' High & Low Weather Summary

 TemperatureHumidityPressure
High90 °F (Sep 17, 1:47 PM)100% (Sep 22, 7:42 PM)29.97 "Hg (Sep 22, 7:42 PM)
Low73 °F (Sep 26, 5:07 AM)66% (Sep 18, 1:40 PM)29.74 "Hg (Sep 28, 4:40 PM)
Average83 °F80%29.86 "Hg
* Reported Sep 17 5:41 AM — Oct 2 5:42 AM, Orange Walk Town, Weather by CustomWeather, © 2014

Note: Actual official high and low records may vary slightly from our data, if they occured in-between our weather recording intervals... More about our weather records

Advertising

Orange Walk Town weather history for previous 24 hours

 ConditionsComfort  
Time TempWeatherWind HumidityBarometerVisibility
5:42 AM
Oct 2
84 °FPassing clouds.9 mph74%29.91 "Hg7 mi
5:11 AM84 °FPassing clouds.12 mph74%29.91 "Hg7 mi
12:58 AM81 °FPassing clouds.12 mph79%29.88 "Hg7 mi
11:58 PM
Oct 1
82 °FPartly cloudy.12 mph79%29.90 "Hg7 mi
9:50 PM82 °FPassing clouds.12 mph79%29.90 "Hg7 mi
8:55 PM82 °FPassing clouds.12 mph79%29.89 "Hg7 mi
7:43 PM84 °FPartly cloudy.12 mph74%29.87 "Hg7 mi
6:46 PM84 °FPassing clouds.12 mph74%29.85 "Hg7 mi
5:47 PM86 °FBroken clouds.12 mph75%29.82 "Hg7 mi
4:45 PM86 °FScattered clouds.12 mph75%29.80 "Hg7 mi
3:56 PM88 °FBroken clouds.12 mph75%29.80 "Hg7 mi
2:47 PM88 °FScattered clouds.14 mph70%29.82 "Hg7 mi
1:45 PM88 °FScattered clouds.7 mph75%29.82 "Hg7 mi
1:02 PM88 °FScattered clouds.15 mph75%29.83 "Hg7 mi
10:40 AM88 °FScattered clouds.14 mph70%29.90 "Hg7 mi
9:42 AM86 °FScattered clouds.12 mph70%29.91 "Hg7 mi
8:42 AM84 °FScattered clouds.6 mph70%29.90 "Hg7 mi
7:45 AM86 °FScattered clouds.No wind70%29.88 "Hg7 mi
6:42 AM84 °FPassing clouds.No wind74%29.86 "Hg7 mi
Weather by CustomWeather, © 2014

See weather overviewHow to use our weather pages